Regional Weather Roundup
Issued by NWS

Home | Current Version | Previous Version | Graphics & Text | Print | Product List | Glossary On
Versions: 1 2 3 4 5 6 7 8 9 10 11 12 13 14 15 16 17 18 19 20 21 22 23 24 25 26 27 28 29 30 31 32 33 34 35 36 37 38 39 40 41 42 43 44 45 46 47 48 49 50
000
ASUS44 KMEG 172310
RWRTN
TENNESSEE HOURLY STATE WEATHER ROUNDUP
NATIONAL WEATHER SERVICE MEMPHIS TN
600 PM CDT WED SEP 17 2014

TNZ002-004-019-021-049-052-054-088>092-180000-
WEST TENNESSEE

CITY           SKY/WX    TMP DP  RH WIND       PRES   REMARKS
MEMPHIS INTL   CLOUDY    73  61  65 S5        29.94F
NWS MEMPHIS      N/A     71 N/A N/A MISG        N/A
JACKSON        CLOUDY    69  61  75 CALM      29.98R
DYERSBURG      CLOUDY    64  54  68 E3        29.96F
UNION CITY     PTSUNNY   66  57  72 SW5       29.96R
PARIS          SUNNY     66  55  68 SW5       29.97R
HUNTINGDON     CLOUDY    66  57  72 SW3       29.98R
LEXINGTON      SUNNY     68  57  68 W3        29.97S
SAVANNAH       SUNNY     72  55  56 N5        29.97S
$$

TNZ008-025-027-028-033-062-065-066-180000-
NORTH MIDDLE TENNESSEE

CITY           SKY/WX    TMP DP  RH WIND       PRES   REMARKS
NASHVILLE      MOCLDY    70  57  63 SE6       29.95F
DICKSON        PTSUNNY   64  57  77 CALM      29.95S
PORTLAND       PTCLDY    66  55  68 E3        29.93F
CLARKSVILLE    PTSUNNY   69  53  56 S3        29.95R
LEBANON        MOCLDY    70  56  61 CALM      29.95F
SMYRNA         MOCLDY    69  56  63 SE5       29.95F
MURFREESBORO   MOCLDY    69  53  56 E3        29.97F
COOKEVILLE     CLEAR     70  61  73 CALM      29.99S
LIVINGSTON     MOCLDY    66  54  65 CALM      30.00S
GALLATIN       MOCLDY    71  57  61 E7        29.95F
CROSSVILLE     MOCLDY    67  54  63 W6        30.01S
$$

TNZ061-075-076-078-094-096-097-180000-
SOUTH MIDDLE TENNESSEE

CITY           SKY/WX    TMP DP  RH WIND       PRES   REMARKS
LEWISBURG      MOCLDY    69  59  70 E5        29.94F
FAYETTEVILLE   CLEAR     70  54  56 NE5       29.96F
TULLAHOMA      CLEAR     70  54  56 NE5       29.99S
WINCHESTER     CLEAR     72  55  56 N6        29.98S
MCMINNVILLE    CLEAR     68  61  77 N3        30.00R
COLUMBIA       CLEAR     70  61  73 E3        29.93R
SHELBYVILLE    CLEAR     70  57  64 NE5       29.98F
$$

TNZ017-018-042-046-047-180000-
NORTHEAST TENNESSEE

CITY           SKY/WX    TMP DP  RH WIND       PRES   REMARKS
TRI CITIES     PTCLDY    72  52  49 NW7       29.96R
ELIZABETHTON   PTCLDY    70  55  60 NW6       29.96R
$$

TNZ012-013-036-069-073-074-180000-
CENTRAL EAST TENNESSEE

CITY           SKY/WX    TMP DP  RH WIND       PRES   REMARKS
KNOXVILLE      MOCLDY    73  53  49 W7        29.94S
OAK RIDGE      PTCLDY    74  54  49 SW5       29.97R
GATLINBURG     CLEAR     72  54  53 NW5       29.95S
MORRISTOWN     CLEAR     73  57  56 NW5       29.97F
$$

TNZ083-085-099-180000-
SOUTHEAST TENNESSEE

CITY           SKY/WX    TMP DP  RH WIND       PRES   REMARKS
CHATTANOOGA    MOCLDY    76  56  49 NE9       29.94F
$$

SKY/WX REPORTED AS FAIR MEANS FEW OR NO CLOUDS BELOW
12 THOUSAND FEET.



USA.gov is the U.S. government's official web portal to all federal, state and local government web resources and services.